Time,TemperatureF,DewpointF,PressureIn,WindDirection,WindDirectionDegrees,WindSpeedMPH,WindSpeedGustMPH,Humidity,HourlyPrecipIn,Conditions,Clouds,dailyrainin,SoftwareType,DateUTC
2013-06-16 00:02:00,71.5,45.2,29.83,WNW,285,1.2,0.0,39,0.00,CLR,,0.00,WeatherDisplay:10.37,2013-06-16 07:02:00,
2013-06-16 00:07:00,71.4,45.1,29.83,NNW,339,0.0,0.0,39,0.00,CLR,,0.00,WeatherDisplay:10.37,2013-06-16 07:07:00,
2013-06-16 00:12:00,71.2,45.0,29.83,NW,319,0.0,0.0,39,0.00,CLR,,0.00,WeatherDisplay:10.37,2013-06-16 07:12:00,
2013-06-16 00:17:00,70.9,44.7,29.84,NW,319,0.0,0.0,39,0.00,CLR,,0.00,WeatherDisplay:10.37,2013-06-16 07:17:00,
2013-06-16 00:22:00,70.5,45.7,29.84,NW,319,0.0,0.0,41,0.00,CLR,,0.00,WeatherDisplay:10.37,2013-06-16 07:22:00,
2013-06-16 00:27:00,70.2,46.6,29.84,NW,319,0.0,0.0,43,0.00,CLR,,0.00,WeatherDisplay:10.37,2013-06-16 07:27:00,
2013-06-16 00:32:00,69.8,45.7,29.84,NW,319,0.0,0.0,42,0.00,CLR,,0.00,WeatherDisplay:10.37,2013-06-16 07:32:00,
2013-06-16 00:37:00,69.4,45.3,29.84,NW,319,0.0,0.0,42,0.00,CLR,,0.00,WeatherDisplay:10.37,2013-06-16 07:37:00,
2013-06-16 00:42:00,69.0,45.6,29.84,NW,319,0.0,0.0,43,0.00,CLR,,0.00,WeatherDisplay:10.37,2013-06-16 07:42:00,
2013-06-16 00:47:00,68.7,45.9,29.84,NW,319,0.0,0.0,44,0.00,CLR,,0.00,WeatherDisplay:10.37,2013-06-16 07:47:00,
2013-06-16 00:52:00,68.7,47.1,29.84,NW,319,0.0,0.0,46,0.00,CLR,,0.00,WeatherDisplay:10.37,2013-06-16 07:52:00,
2013-06-16 00:57:00,68.5,46.3,29.84,NW,319,0.0,0.0,45,0.00,CLR,,0.00,WeatherDisplay:10.37,2013-06-16 07:57:00,
2013-06-16 01:02:00,68.1,47.1,29.84,NW,319,0.0,0.0,47,0.00,CLR,,0.00,WeatherDisplay:10.37,2013-06-16 08:02:00,
2013-06-16 01:07:00,67.7,46.7,29.84,NW,319,0.0,0.0,47,0.00,CLR,,0.00,WeatherDisplay:10.37,2013-06-16 08:07:00,
2013-06-16 01:12:00,67.4,46.5,29.85,NW,319,0.0,0.0,47,0.00,CLR,,0.00,WeatherDisplay:10.37,2013-06-16 08:12:00,
2013-06-16 01:17:00,67.3,47.5,29.85,NW,319,0.0,0.0,49,0.00,CLR,,0.00,WeatherDisplay:10.37,2013-06-16 08:17:00,
2013-06-16 01:22:00,67.1,46.7,29.85,NW,319,0.0,0.0,48,0.00,CLR,,0.00,WeatherDisplay:10.37,2013-06-16 08:22:00,
2013-06-16 01:27:00,66.9,47.6,29.85,NW,319,0.0,0.0,50,0.00,CLR,,0.00,WeatherDisplay:10.37,2013-06-16 08:27:00,
2013-06-16 01:32:00,66.7,48.0,29.85,NW,319,0.0,0.0,51,0.00,CLR,,0.00,WeatherDisplay:10.37,2013-06-16 08:32:00,
2013-06-16 01:37:00,66.3,47.6,29.85,NW,319,0.0,0.0,51,0.00,CLR,,0.00,WeatherDisplay:10.37,2013-06-16 08:37:00,
2013-06-16 01:42:00,66.0,48.4,29.85,NW,319,0.0,0.0,53,0.00,CLR,,0.00,WeatherDisplay:10.37,2013-06-16 08:42:00,
2013-06-16 01:47:00,65.8,49.2,29.85,NW,319,0.0,0.0,55,0.00,CLR,,0.00,WeatherDisplay:10.37,2013-06-16 08:47:00,
2013-06-16 01:52:00,65.4,48.3,29.85,NW,319,0.0,0.0,54,0.00,CLR,,0.00,WeatherDisplay:10.37,2013-06-16 08:52:00,
2013-06-16 01:57:00,65.1,48.0,29.85,NW,319,0.0,0.0,54,0.00,CLR,,0.00,WeatherDisplay:10.37,2013-06-16 08:57:00,
2013-06-16 02:02:00,64.9,48.3,29.85,NW,319,0.0,0.0,55,0.00,CLR,,0.00,WeatherDisplay:10.37,2013-06-16 09:02:00,
2013-06-16 02:07:00,64.7,48.6,29.85,NW,319,0.0,0.0,56,0.00,CLR,,0.00,WeatherDisplay:10.37,2013-06-16 09:07:00,
2013-06-16 02:12:00,64.5,48.9,29.85,NW,319,0.0,0.0,57,0.00,CLR,,0.00,WeatherDisplay:10.37,2013-06-16 09:12:00,
2013-06-16 02:17:00,64.3,49.2,29.86,NW,319,0.0,0.0,58,0.00,CLR,,0.00,WeatherDisplay:10.37,2013-06-16 09:17:00,
2013-06-16 02:22:00,64.1,49.0,29.86,NW,319,0.0,0.0,58,0.00,CLR,,0.00,WeatherDisplay:10.37,2013-06-16 09:22:00,
2013-06-16 02:27:00,63.9,49.3,29.86,NW,319,0.0,0.0,59,0.00,CLR,,0.00,WeatherDisplay:10.37,2013-06-16 09:27:00,
2013-06-16 02:32:00,63.7,48.6,29.86,NW,319,0.0,0.0,58,0.00,CLR,,0.00,WeatherDisplay:10.37,2013-06-16 09:32:00,
2013-06-16 02:37:00,63.5,48.9,29.86,NW,319,0.0,0.0,59,0.00,CLR,,0.00,WeatherDisplay:10.37,2013-06-16 09:37:00,
2013-06-16 02:42:00,63.3,48.7,29.86,NW,319,0.0,0.0,59,0.00,CLR,,0.00,WeatherDisplay:10.37,2013-06-16 09:42:00,
2013-06-16 02:47:00,63.3,49.2,29.86,NW,319,0.0,0.0,60,0.00,CLR,,0.00,WeatherDisplay:10.37,2013-06-16 09:47:00,
2013-06-16 02:52:00,63.2,49.1,29.86,NW,319,0.0,0.0,60,0.00,CLR,,0.00,WeatherDisplay:10.37,2013-06-16 09:52:00,
2013-06-16 02:57:00,63.1,49.4,29.87,NW,319,0.0,0.0,61,0.00,CLR,,0.00,WeatherDisplay:10.37,2013-06-16 09:57:00,
2013-06-16 03:02:00,63.0,49.3,29.87,NW,319,0.0,0.0,61,0.00,CLR,,0.00,WeatherDisplay:10.37,2013-06-16 10:02:00,
2013-06-16 03:07:00,62.9,49.7,29.87,NW,319,0.0,0.0,62,0.00,CLR,,0.00,WeatherDisplay:10.37,2013-06-16 10:07:00,
2013-06-16 03:12:00,62.7,49.5,29.87,NW,319,0.0,0.0,62,0.00,CLR,,0.00,WeatherDisplay:10.37,2013-06-16 10:12:00,
2013-06-16 03:17:00,62.6,49.4,29.87,NW,319,0.0,0.0,62,0.00,CLR,,0.00,WeatherDisplay:10.37,2013-06-16 10:17:00,
2013-06-16 03:22:00,62.5,49.7,29.87,NW,319,0.0,0.0,63,0.00,CLR,,0.00,WeatherDisplay:10.37,2013-06-16 10:22:00,
2013-06-16 03:27:00,62.2,49.4,29.87,NW,319,0.0,0.0,63,0.00,CLR,,0.00,WeatherDisplay:10.37,2013-06-16 10:27:00,
2013-06-16 03:32:00,62.0,49.7,29.87,NW,319,0.0,0.0,64,0.00,CLR,,0.00,WeatherDisplay:10.37,2013-06-16 10:32:00,
2013-06-16 03:37:00,61.9,50.0,29.87,NW,319,0.0,0.0,65,0.00,CLR,,0.00,WeatherDisplay:10.37,2013-06-16 10:37:00,
2013-06-16 03:42:00,61.8,49.5,29.87,NW,319,0.0,0.0,64,0.00,CLR,,0.00,WeatherDisplay:10.37,2013-06-16 10:42:00,
2013-06-16 03:47:00,61.7,49.4,29.87,NW,319,0.0,0.0,64,0.00,CLR,,0.00,WeatherDisplay:10.37,2013-06-16 10:47:00,
2013-06-16 03:52:00,61.6,49.7,29.88,NW,319,0.0,0.0,65,0.00,CLR,,0.00,WeatherDisplay:10.37,2013-06-16 10:52:00,
2013-06-16 03:57:00,61.5,49.6,29.88,NW,319,0.0,0.0,65,0.00,CLR,,0.00,WeatherDisplay:10.37,2013-06-16 10:57:00,
2013-06-16 04:02:00,61.3,49.8,29.88,NW,319,0.0,0.0,66,0.00,CLR,,0.00,WeatherDisplay:10.37,2013-06-16 11:02:00,
2013-06-16 04:07:00,61.1,49.7,29.88,NW,319,0.0,0.0,66,0.00,CLR,,0.00,WeatherDisplay:10.37,2013-06-16 11:07:00,
2013-06-16 04:12:00,61.0,49.6,29.88,NW,319,0.0,0.0,66,0.00,CLR,,0.00,WeatherDisplay:10.37,2013-06-16 11:12:00,
2013-06-16 04:17:00,61.3,49.4,29.88,NW,319,0.0,0.0,65,0.00,CLR,,0.00,WeatherDisplay:10.37,2013-06-16 11:17:00,
2013-06-16 04:22:00,61.7,49.4,29.88,NW,319,0.0,0.0,64,0.00,CLR,,0.00,WeatherDisplay:10.37,2013-06-16 11:22:00,
2013-06-16 04:27:00,61.9,50.0,29.88,NW,319,0.0,0.0,65,0.00,CLR,,0.00,WeatherDisplay:10.37,2013-06-16 11:27:00,
2013-06-16 04:32:00,61.9,49.6,29.89,NW,319,0.0,0.0,64,0.00,CLR,,0.00,WeatherDisplay:10.37,2013-06-16 11:32:00,
2013-06-16 04:37:00,62.0,49.3,29.89,NW,319,0.0,0.0,63,0.00,CLR,,0.00,WeatherDisplay:10.37,2013-06-16 11:37:00,
2013-06-16 04:42:00,61.9,48.7,29.89,NW,319,0.0,0.0,62,0.00,CLR,,0.00,WeatherDisplay:10.37,2013-06-16 11:42:00,
2013-06-16 04:47:00,61.6,48.9,29.89,NW,319,0.0,0.0,63,0.00,CLR,,0.00,WeatherDisplay:10.37,2013-06-16 11:47:00,
2013-06-16 04:52:00,61.4,49.1,29.89,NW,319,0.0,0.0,64,0.00,CLR,,0.00,WeatherDisplay:10.37,2013-06-16 11:52:00,
2013-06-16 04:57:00,61.2,48.1,29.89,NW,319,0.0,0.0,62,0.00,CLR,,0.00,WeatherDisplay:10.37,2013-06-16 11:57:00,
2013-06-16 05:02:00,61.1,48.0,29.90,NW,319,0.0,0.0,62,0.00,CLR,,0.00,WeatherDisplay:10.37,2013-06-16 12:02:00,
2013-06-16 05:07:00,61.1,47.5,29.90,NW,319,0.0,0.0,61,0.00,CLR,,0.00,WeatherDisplay:10.37,2013-06-16 12:07:00,
2013-06-16 05:12:00,61.0,47.4,29.90,NW,319,0.0,0.0,61,0.00,CLR,,0.00,WeatherDisplay:10.37,2013-06-16 12:12:00,
2013-06-16 05:17:00,61.0,47.4,29.90,NW,319,0.0,0.0,61,0.00,CLR,,0.00,WeatherDisplay:10.37,2013-06-16 12:17:00,
2013-06-16 05:22:00,60.9,47.4,29.91,NW,319,0.0,0.0,61,0.00,CLR,,0.00,WeatherDisplay:10.37,2013-06-16 12:22:00,
2013-06-16 05:27:00,60.9,47.4,29.91,NW,319,0.0,0.0,61,0.00,CLR,,0.00,WeatherDisplay:10.37,2013-06-16 12:27:00,
2013-06-16 05:32:00,60.8,47.3,29.91,NW,319,0.0,0.0,61,0.00,CLR,,0.00,WeatherDisplay:10.37,2013-06-16 12:32:00,
2013-06-16 05:37:00,60.7,47.2,29.91,NW,319,0.0,0.0,61,0.00,CLR,,0.00,WeatherDisplay:10.37,2013-06-16 12:37:00,
2013-06-16 05:42:00,60.5,47.4,29.91,NW,319,0.0,0.0,62,0.00,CLR,,0.00,WeatherDisplay:10.37,2013-06-16 12:42:00,
2013-06-16 05:47:00,60.4,47.7,29.91,NW,319,0.0,0.0,63,0.00,CLR,,0.00,WeatherDisplay:10.37,2013-06-16 12:47:00,
2013-06-16 05:52:00,60.3,47.6,29.91,NW,319,0.0,0.0,63,0.00,CLR,,0.00,WeatherDisplay:10.37,2013-06-16 12:52:00,
2013-06-16 05:57:00,60.1,47.9,29.91,NW,319,0.0,0.0,64,0.00,CLR,,0.00,WeatherDisplay:10.37,2013-06-16 12:57:00,
2013-06-16 06:02:00,60.1,47.9,29.92,NW,319,0.0,0.0,64,0.00,CLR,,0.00,WeatherDisplay:10.37,2013-06-16 13:02:00,
2013-06-16 06:07:00,60.0,47.4,29.92,NW,319,0.0,0.0,63,0.00,CLR,,0.00,WeatherDisplay:10.37,2013-06-16 13:07:00,
2013-06-16 06:12:00,59.9,48.1,29.92,NW,319,0.0,0.0,65,0.00,CLR,,0.00,WeatherDisplay:10.37,2013-06-16 13:12:00,
2013-06-16 06:17:00,59.9,48.1,29.92,NW,319,0.0,0.0,65,0.00,CLR,,0.00,WeatherDisplay:10.37,2013-06-16 13:17:00,
2013-06-16 06:22:00,60.0,48.2,29.92,NW,319,0.0,0.0,65,0.00,CLR,,0.00,WeatherDisplay:10.37,2013-06-16 13:22:00,
2013-06-16 06:27:00,60.0,48.2,29.92,NW,319,0.0,0.0,65,0.00,CLR,,0.00,WeatherDisplay:10.37,2013-06-16 13:27:00,
2013-06-16 06:32:00,60.2,48.8,29.92,NW,319,0.0,0.0,66,0.00,CLR,,0.00,WeatherDisplay:10.37,2013-06-16 13:32:00,
2013-06-16 06:37:00,60.3,49.3,29.92,NW,319,0.0,0.0,67,0.00,CLR,,0.00,WeatherDisplay:10.37,2013-06-16 13:37:00,
2013-06-16 06:42:00,60.5,48.7,29.92,NW,319,0.0,0.0,65,0.00,CLR,,0.00,WeatherDisplay:10.37,2013-06-16 13:42:00,
2013-06-16 06:47:00,60.9,49.1,29.93,NW,319,0.0,0.0,65,0.00,CLR,,0.00,WeatherDisplay:10.37,2013-06-16 13:47:00,
2013-06-16 06:52:00,61.3,49.0,29.93,NNW,345,0.0,0.0,64,0.00,CLR,,0.00,WeatherDisplay:10.37,2013-06-16 13:52:00,
2013-06-16 06:57:00,61.7,49.0,29.93,NNW,345,0.0,0.0,63,0.00,CLR,,0.00,WeatherDisplay:10.37,2013-06-16 13:57:00,
2013-06-16 07:02:00,62.1,48.9,29.93,NNW,345,0.0,0.0,62,0.00,CLR,,0.00,WeatherDisplay:10.37,2013-06-16 14:02:00,
2013-06-16 07:07:00,62.4,48.8,29.94,NNW,345,0.0,0.0,61,0.00,CLR,,0.00,WeatherDisplay:10.37,2013-06-16 14:07:00,
2013-06-16 07:12:00,62.6,49.0,29.94,North,352,0.0,0.0,61,0.00,CLR,,0.00,WeatherDisplay:10.37,2013-06-16 14:12:00,
2013-06-16 07:17:00,63.0,49.3,29.94,North,352,0.0,0.0,61,0.00,CLR,,0.00,WeatherDisplay:10.37,2013-06-16 14:17:00,
2013-06-16 07:22:00,63.3,49.2,29.94,NW,305,0.0,0.0,60,0.00,CLR,,0.00,WeatherDisplay:10.37,2013-06-16 14:22:00,
2013-06-16 07:27:00,63.7,49.5,29.94,WSW,246,0.0,0.0,60,0.00,CLR,,0.00,WeatherDisplay:10.37,2013-06-16 14:27:00,
2013-06-16 07:32:00,64.1,49.5,29.94,WSW,243,0.0,0.0,59,0.00,CLR,,0.00,WeatherDisplay:10.37,2013-06-16 14:32:00,
2013-06-16 07:37:00,64.4,49.8,29.94,WSW,243,0.0,0.0,59,0.00,CLR,,0.00,WeatherDisplay:10.37,2013-06-16 14:37:00,
2013-06-16 07:42:00,64.7,50.5,29.95,SSE,167,0.0,0.0,60,0.00,CLR,,0.00,WeatherDisplay:10.37,2013-06-16 14:42:00,
2013-06-16 07:47:00,64.9,50.2,29.95,SSE,167,0.0,0.0,59,0.00,CLR,,0.00,WeatherDisplay:10.37,2013-06-16 14:47:00,
2013-06-16 07:52:00,65.2,50.0,29.95,South,169,0.0,0.0,58,0.00,CLR,,0.00,WeatherDisplay:10.37,2013-06-16 14:52:00,
2013-06-16 07:57:00,65.5,51.7,29.95,West,278,1.2,0.0,61,0.00,CLR,,0.00,WeatherDisplay:10.37,2013-06-16 14:57:00,
2013-06-16 08:02:00,65.7,50.0,29.95,SW,228,0.0,0.0,57,0.00,CLR,,0.00,WeatherDisplay:10.37,2013-06-16 15:02:00,
2013-06-16 08:07:00,65.9,49.3,29.96,SW,217,1.2,1.2,55,0.00,CLR,,0.00,WeatherDisplay:10.37,2013-06-16 15:07:00,
2013-06-16 08:12:00,66.4,49.2,29.96,WSW,249,0.0,0.0,54,0.00,CLR,,0.00,WeatherDisplay:10.37,2013-06-16 15:12:00,
2013-06-16 08:17:00,66.7,49.0,29.96,WSW,249,0.0,0.0,53,0.00,CLR,,0.00,WeatherDisplay:10.37,2013-06-16 15:17:00,
2013-06-16 08:22:00,67.2,50.0,29.96,West,263,0.0,0.0,54,0.00,CLR,,0.00,WeatherDisplay:10.37,2013-06-16 15:22:00,
2013-06-16 08:27:00,67.5,49.8,29.96,WSW,254,0.0,0.1,53,0.00,CLR,,0.00,WeatherDisplay:10.37,2013-06-16 15:27:00,
2013-06-16 08:32:00,68.0,49.7,29.97,SW,217,0.0,0.0,52,0.00,CLR,,0.00,WeatherDisplay:10.37,2013-06-16 15:32:00,
2013-06-16 08:37:00,68.3,50.5,29.97,SSW,212,1.0,0.0,53,0.00,CLR,,0.00,WeatherDisplay:10.37,2013-06-16 15:37:00,
2013-06-16 08:42:00,68.5,50.7,29.97,West,276,1.2,0.0,53,0.00,CLR,,0.00,WeatherDisplay:10.37,2013-06-16 15:42:00,
2013-06-16 08:47:00,68.6,50.3,29.97,SSW,195,0.0,0.2,52,0.00,CLR,,0.00,WeatherDisplay:10.37,2013-06-16 15:47:00,
2013-06-16 08:52:00,68.7,50.4,29.97,WSW,252,0.0,0.0,52,0.00,CLR,,0.00,WeatherDisplay:10.37,2013-06-16 15:52:00,
2013-06-16 08:57:00,69.0,50.1,29.98,South,186,0.0,0.0,51,0.00,CLR,,0.00,WeatherDisplay:10.37,2013-06-16 15:57:00,
2013-06-16 09:02:00,69.3,50.9,29.98,SE,125,1.2,1.2,52,0.00,CLR,,0.00,WeatherDisplay:10.37,2013-06-16 16:02:00,
2013-06-16 09:07:00,69.5,50.0,29.98,NNW,347,1.2,1.2,50,0.00,CLR,,0.00,WeatherDisplay:10.37,2013-06-16 16:07:00,
2013-06-16 09:12:00,69.7,51.3,29.98,WSW,243,0.0,0.0,52,0.00,CLR,,0.00,WeatherDisplay:10.37,2013-06-16 16:12:00,
2013-06-16 09:17:00,70.0,51.0,29.98,WSW,243,1.0,0.0,51,0.00,CLR,,0.00,WeatherDisplay:10.37,2013-06-16 16:17:00,
2013-06-16 09:22:00,70.2,50.7,29.98,WSW,238,0.0,0.0,50,0.00,CLR,,0.00,WeatherDisplay:10.37,2013-06-16 16:22:00,
2013-06-16 09:27:00,70.5,51.5,29.98,East,79,1.2,0.0,51,0.00,CLR,,0.00,WeatherDisplay:10.37,2013-06-16 16:27:00,
2013-06-16 09:32:00,70.9,50.8,29.98,West,262,0.0,0.0,49,0.00,CLR,,0.00,WeatherDisplay:10.37,2013-06-16 16:32:00,
2013-06-16 09:37:00,71.2,49.9,29.98,WNW,285,1.2,1.2,47,0.00,CLR,,0.00,WeatherDisplay:10.37,2013-06-16 16:37:00,
2013-06-16 09:42:00,71.6,50.9,29.98,East,94,1.2,1.2,48,0.00,CLR,,0.00,WeatherDisplay:10.37,2013-06-16 16:42:00,
2013-06-16 09:47:00,72.0,50.7,29.98,SSW,197,0.0,0.0,47,0.00,CLR,,0.00,WeatherDisplay:10.37,2013-06-16 16:47:00,
2013-06-16 09:52:00,72.3,51.5,29.98,East,98,1.2,0.0,48,0.00,CLR,,0.00,WeatherDisplay:10.37,2013-06-16 16:52:00,
2013-06-16 09:57:00,72.7,50.7,29.98,WNW,294,0.0,0.1,46,0.00,CLR,,0.00,WeatherDisplay:10.37,2013-06-16 16:57:00,
2013-06-16 10:02:00,73.0,51.6,29.98,WSW,243,1.0,1.0,47,0.00,CLR,,0.00,WeatherDisplay:10.37,2013-06-16 17:02:00,
2013-06-16 10:07:00,73.4,51.4,29.97,West,259,1.2,1.2,46,0.00,CLR,,0.00,WeatherDisplay:10.37,2013-06-16 17:07:00,
2013-06-16 10:12:00,73.8,50.5,29.97,SSW,193,0.0,0.0,44,0.00,CLR,,0.00,WeatherDisplay:10.37,2013-06-16 17:12:00,
2013-06-16 10:17:00,74.1,52.0,29.97,WSW,238,0.0,0.0,46,0.00,CLR,,0.00,WeatherDisplay:10.37,2013-06-16 17:17:00,
2013-06-16 10:22:00,74.4,51.7,29.97,SSE,158,1.2,1.2,45,0.00,CLR,,0.00,WeatherDisplay:10.37,2013-06-16 17:22:00,
2013-06-16 10:27:00,74.7,51.3,29.97,South,179,0.0,0.0,44,0.00,CLR,,0.00,WeatherDisplay:10.37,2013-06-16 17:27:00,
2013-06-16 10:32:00,74.9,52.1,29.97,West,277,0.0,0.0,45,0.00,CLR,,0.00,WeatherDisplay:10.37,2013-06-16 17:32:00,
2013-06-16 10:37:00,75.3,51.9,29.97,SSE,160,0.0,0.0,44,0.00,CLR,,0.00,WeatherDisplay:10.37,2013-06-16 17:37:00,
2013-06-16 10:42:00,75.7,52.8,29.97,SW,235,2.3,0.0,45,0.00,CLR,,0.00,WeatherDisplay:10.37,2013-06-16 17:42:00,
2013-06-16 10:47:00,76.3,52.8,29.97,WSW,252,0.0,0.0,44,0.00,CLR,,0.00,WeatherDisplay:10.37,2013-06-16 17:47:00,
2013-06-16 10:52:00,76.7,51.9,29.97,SW,226,1.2,1.2,42,0.00,CLR,,0.00,WeatherDisplay:10.37,2013-06-16 17:52:00,
2013-06-16 10:57:00,77.2,53.0,29.97,SE,126,1.2,0.0,43,0.00,CLR,,0.00,WeatherDisplay:10.37,2013-06-16 17:57:00,
2013-06-16 11:02:00,77.5,53.2,29.97,ENE,64,1.2,0.0,43,0.00,CLR,,0.00,WeatherDisplay:10.37,2013-06-16 18:02:00,
2013-06-16 11:07:00,78.0,53.0,29.96,SSW,207,1.2,1.2,42,0.00,CLR,,0.00,WeatherDisplay:10.37,2013-06-16 18:07:00,
2013-06-16 11:12:00,78.4,52.7,29.96,SW,226,1.2,1.2,41,0.00,CLR,,0.00,WeatherDisplay:10.37,2013-06-16 18:12:00,
2013-06-16 11:17:00,78.8,51.0,29.96,SW,219,1.2,1.2,38,0.00,CLR,,0.00,WeatherDisplay:10.37,2013-06-16 18:17:00,
2013-06-16 11:22:00,79.1,52.0,29.96,SSW,201,2.3,2.3,39,0.00,CLR,,0.00,WeatherDisplay:10.37,2013-06-16 18:22:00,
2013-06-16 11:27:00,79.5,52.4,29.96,West,269,1.0,1.0,39,0.00,CLR,,0.00,WeatherDisplay:10.37,2013-06-16 18:27:00,
2013-06-16 11:32:00,79.9,52.7,29.96,West,269,3.5,0.0,39,0.00,CLR,,0.00,WeatherDisplay:10.37,2013-06-16 18:32:00,
2013-06-16 11:37:00,80.3,53.8,29.96,South,172,2.3,2.3,40,0.00,CLR,,0.00,WeatherDisplay:10.37,2013-06-16 18:37:00,
2013-06-16 11:42:00,80.9,52.9,29.96,WSW,239,1.0,1.0,38,0.00,CLR,,0.00,WeatherDisplay:10.37,2013-06-16 18:42:00,
2013-06-16 11:47:00,81.2,52.4,29.96,WSW,255,3.5,3.5,37,0.00,CLR,,0.00,WeatherDisplay:10.37,2013-06-16 18:47:00,
2013-06-16 11:52:00,81.7,52.9,29.96,SW,233,0.0,0.0,37,0.00,CLR,,0.00,WeatherDisplay:10.37,2013-06-16 18:52:00,
2013-06-16 11:57:00,82.2,51.8,29.96,North,1,4.0,4.0,35,0.00,CLR,,0.00,WeatherDisplay:10.37,2013-06-16 18:57:00,
2013-06-16 12:02:00,82.6,52.9,29.95,South,169,2.3,0.0,36,0.00,CLR,,0.00,WeatherDisplay:10.37,2013-06-16 19:02:00,
2013-06-16 12:07:00,83.3,52.8,29.95,West,277,1.0,1.0,35,0.00,CLR,,0.00,WeatherDisplay:10.37,2013-06-16 19:07:00,
2013-06-16 12:12:00,84.1,51.9,29.95,South,173,3.5,3.5,33,0.00,CLR,,0.00,WeatherDisplay:10.37,2013-06-16 19:12:00,
2013-06-16 12:17:00,84.3,51.2,29.95,NNW,328,3.5,3.5,32,0.00,CLR,,0.00,WeatherDisplay:10.37,2013-06-16 19:17:00,
2013-06-16 12:22:00,84.7,51.6,29.95,West,278,1.2,1.2,32,0.00,CLR,,0.00,WeatherDisplay:10.37,2013-06-16 19:22:00,
2013-06-16 12:27:00,85.3,52.1,29.95,NNW,339,2.3,2.3,32,0.00,CLR,,0.00,WeatherDisplay:10.37,2013-06-16 19:27:00,
2013-06-16 12:32:00,85.8,50.8,29.95,NNE,16,2.0,2.0,30,0.00,CLR,,0.00,WeatherDisplay:10.37,2013-06-16 19:32:00,
2013-06-16 12:37:00,85.9,51.8,29.95,WNW,300,3.5,0.0,31,0.00,CLR,,0.00,WeatherDisplay:10.37,2013-06-16 19:37:00,
2013-06-16 12:42:00,86.4,51.3,29.95,NNW,347,3.5,3.5,30,0.00,CLR,,0.00,WeatherDisplay:10.37,2013-06-16 19:42:00,
2013-06-16 12:47:00,86.4,50.4,29.95,SW,225,3.5,3.5,29,0.00,CLR,,0.00,WeatherDisplay:10.37,2013-06-16 19:47:00,
2013-06-16 12:52:00,86.0,50.0,29.94,SW,215,3.5,3.5,29,0.00,CLR,,0.00,WeatherDisplay:10.37,2013-06-16 19:52:00,
2013-06-16 12:57:00,86.4,49.4,29.94,NW,311,3.5,3.5,28,0.00,CLR,,0.00,WeatherDisplay:10.37,2013-06-16 19:57:00,
2013-06-16 13:02:00,86.8,50.7,29.94,NW,325,3.5,3.5,29,0.00,CLR,,0.00,WeatherDisplay:10.37,2013-06-16 20:02:00,
2013-06-16 13:07:00,87.5,50.4,29.94,North,1,2.0,2.0,28,0.00,CLR,,0.00,WeatherDisplay:10.37,2013-06-16 20:07:00,
2013-06-16 13:12:00,88.0,50.8,29.94,West,269,3.5,3.5,28,0.00,CLR,,0.00,WeatherDisplay:10.37,2013-06-16 20:12:00,
2013-06-16 13:17:00,88.4,49.2,29.94,NNE,33,3.5,3.5,26,0.00,CLR,,0.00,WeatherDisplay:10.37,2013-06-16 20:17:00,
2013-06-16 13:22:00,88.3,48.0,29.93,NNW,328,3.5,3.5,25,0.00,CLR,,0.00,WeatherDisplay:10.37,2013-06-16 20:22:00,
2013-06-16 13:27:00,88.7,48.4,29.93,SSW,198,1.2,2.4,25,0.00,CLR,,0.00,WeatherDisplay:10.37,2013-06-16 20:27:00,
2013-06-16 13:32:00,89.1,49.7,29.93,North,358,2.3,2.3,26,0.00,CLR,,0.00,WeatherDisplay:10.37,2013-06-16 20:32:00,
2013-06-16 13:37:00,89.2,49.8,29.92,North,353,4.0,4.0,26,0.00,CLR,,0.00,WeatherDisplay:10.37,2013-06-16 20:37:00,
2013-06-16 13:42:00,89.1,48.7,29.92,NW,321,3.5,3.5,25,0.00,CLR,,0.00,WeatherDisplay:10.37,2013-06-16 20:42:00,
2013-06-16 13:47:00,89.8,50.3,29.92,SW,226,2.3,2.3,26,0.00,CLR,,0.00,WeatherDisplay:10.37,2013-06-16 20:47:00,
2013-06-16 13:52:00,90.6,48.9,29.92,WNW,300,2.3,2.3,24,0.00,CLR,,0.00,WeatherDisplay:10.37,2013-06-16 20:52:00,
2013-06-16 13:57:00,90.6,50.0,29.92,NNW,345,6.0,6.0,25,0.00,CLR,,0.00,WeatherDisplay:10.37,2013-06-16 20:57:00,
2013-06-16 14:02:00,90.0,50.5,29.92,NW,320,3.5,3.5,26,0.00,CLR,,0.00,WeatherDisplay:10.37,2013-06-16 21:02:00,
2013-06-16 14:07:00,90.5,48.8,29.92,South,174,3.5,3.5,24,0.00,CLR,,0.00,WeatherDisplay:10.37,2013-06-16 21:07:00,
2013-06-16 14:12:00,90.7,50.0,29.92,SSE,156,3.5,3.5,25,0.00,CLR,,0.00,WeatherDisplay:10.37,2013-06-16 21:12:00,
2013-06-16 14:17:00,90.8,49.0,29.91,North,6,4.6,4.6,24,0.00,CLR,,0.00,WeatherDisplay:10.37,2013-06-16 21:17:00,
2013-06-16 14:22:00,90.4,47.6,29.91,NNW,328,3.5,3.5,23,0.00,CLR,,0.00,WeatherDisplay:10.37,2013-06-16 21:22:00,
2013-06-16 14:27:00,91.0,48.1,29.91,NE,44,3.5,3.5,23,0.00,CLR,,0.00,WeatherDisplay:10.37,2013-06-16 21:27:00,
2013-06-16 14:32:00,91.1,48.1,29.91,ENE,77,3.5,3.5,23,0.00,CLR,,0.00,WeatherDisplay:10.37,2013-06-16 21:32:00,
2013-06-16 14:37:00,90.9,45.6,29.91,WNW,296,4.0,4.0,21,0.00,CLR,,0.00,WeatherDisplay:10.37,2013-06-16 21:37:00,
2013-06-16 14:42:00,90.7,47.8,29.91,NNE,13,4.6,4.6,23,0.00,CLR,,0.00,WeatherDisplay:10.37,2013-06-16 21:42:00,
2013-06-16 14:47:00,91.1,48.1,29.91,West,278,4.6,4.6,23,0.00,CLR,,0.00,WeatherDisplay:10.37,2013-06-16 21:47:00,
2013-06-16 14:52:00,91.5,47.3,29.90,South,190,3.5,3.5,22,0.00,CLR,,0.00,WeatherDisplay:10.37,2013-06-16 21:52:00,
2013-06-16 14:57:00,92.4,48.0,29.90,West,273,3.5,3.5,22,0.00,CLR,,0.00,WeatherDisplay:10.37,2013-06-16 21:57:00,
2013-06-16 15:02:00,92.4,49.2,29.90,West,260,2.3,2.3,23,0.00,CLR,,0.00,WeatherDisplay:10.37,2013-06-16 22:02:00,
2013-06-16 15:07:00,92.7,50.6,29.90,ENE,64,3.5,3.5,24,0.00,CLR,,0.00,WeatherDisplay:10.37,2013-06-16 22:07:00,
2013-06-16 15:12:00,92.2,49.1,29.90,SSE,153,4.6,4.6,23,0.00,CLR,,0.00,WeatherDisplay:10.37,2013-06-16 22:12:00,
2013-06-16 15:17:00,92.4,48.0,29.90,North,8,3.5,3.5,22,0.00,CLR,,0.00,WeatherDisplay:10.37,2013-06-16 22:17:00,
2013-06-16 15:22:00,92.1,47.8,29.90,NW,312,2.3,2.3,22,0.00,CLR,,0.00,WeatherDisplay:10.37,2013-06-16 22:22:00,
2013-06-16 15:27:00,92.5,46.9,29.90,NNW,345,1.2,1.2,21,0.00,CLR,,0.00,WeatherDisplay:10.37,2013-06-16 22:27:00,
2013-06-16 15:32:00,92.5,48.1,29.90,North,6,3.5,3.5,22,0.00,CLR,,0.00,WeatherDisplay:10.37,2013-06-16 22:32:00,
2013-06-16 15:37:00,92.3,46.7,29.90,West,271,8.1,8.1,21,0.00,CLR,,0.00,WeatherDisplay:10.37,2013-06-16 22:37:00,
2013-06-16 15:42:00,92.4,48.0,29.90,NW,314,3.0,3.0,22,0.00,CLR,,0.00,WeatherDisplay:10.37,2013-06-16 22:42:00,
2013-06-16 15:47:00,92.7,48.3,29.89,WSW,252,2.3,2.3,22,0.00,CLR,,0.00,WeatherDisplay:10.37,2013-06-16 22:47:00,
2013-06-16 15:52:00,93.3,46.2,29.89,South,179,3.5,3.5,20,0.00,CLR,,0.00,WeatherDisplay:10.37,2013-06-16 22:52:00,
2013-06-16 15:57:00,93.6,47.8,29.89,NNW,339,3.5,3.5,21,0.00,CLR,,0.00,WeatherDisplay:10.37,2013-06-16 22:57:00,
2013-06-16 16:02:00,93.1,47.4,29.89,West,269,3.5,3.5,21,0.00,CLR,,0.00,WeatherDisplay:10.37,2013-06-16 23:02:00,
2013-06-16 16:07:00,92.8,47.1,29.89,WNW,296,2.3,2.3,21,0.00,CLR,,0.00,WeatherDisplay:10.37,2013-06-16 23:07:00,
2013-06-16 16:12:00,92.8,48.4,29.89,NW,319,3.5,3.5,22,0.00,CLR,,0.00,WeatherDisplay:10.37,2013-06-16 23:12:00,
2013-06-16 16:17:00,93.3,46.2,29.89,South,186,2.3,2.3,20,0.00,CLR,,0.00,WeatherDisplay:10.37,2013-06-16 23:17:00,
2013-06-16 16:22:00,93.6,46.5,29.89,WNW,301,3.5,3.5,20,0.00,CLR,,0.00,WeatherDisplay:10.37,2013-06-16 23:22:00,
2013-06-16 16:27:00,93.6,45.1,29.89,North,356,5.8,5.8,19,0.00,CLR,,0.00,WeatherDisplay:10.37,2013-06-16 23:27:00,
2013-06-16 16:32:00,93.5,48.9,29.89,West,281,3.0,3.0,22,0.00,CLR,,0.00,WeatherDisplay:10.37,2013-06-16 23:32:00,
2013-06-16 16:37:00,93.5,45.1,29.89,NW,316,3.5,3.5,19,0.00,CLR,,0.00,WeatherDisplay:10.37,2013-06-16 23:37:00,
2013-06-16 16:42:00,93.6,45.1,29.89,NE,35,2.3,2.3,19,0.00,CLR,,0.00,WeatherDisplay:10.37,2013-06-16 23:42:00,
2013-06-16 16:47:00,94.3,44.3,29.89,ENE,64,2.3,2.3,18,0.00,CLR,,0.00,WeatherDisplay:10.37,2013-06-16 23:47:00,
2013-06-16 16:52:00,94.6,43.0,29.89,North,6,2.3,2.3,17,0.00,CLR,,0.00,WeatherDisplay:10.37,2013-06-16 23:52:00,
2013-06-16 16:57:00,94.4,42.9,29.88,ENE,67,3.5,3.5,17,0.00,CLR,,0.00,WeatherDisplay:10.37,2013-06-16 23:57:00,
2013-06-16 17:02:00,94.3,45.7,29.88,NW,325,3.5,3.5,19,0.00,CLR,,0.00,WeatherDisplay:10.37,2013-06-17 00:02:00,
2013-06-16 17:07:00,93.9,44.0,29.88,NNW,336,3.5,3.5,18,0.00,CLR,,0.00,WeatherDisplay:10.37,2013-06-17 00:07:00,
2013-06-16 17:12:00,94.1,45.5,29.88,NNW,330,1.2,1.2,19,0.00,CLR,,0.00,WeatherDisplay:10.37,2013-06-17 00:12:00,
2013-06-16 17:17:00,94.7,44.6,29.88,SW,218,2.3,2.3,18,0.00,CLR,,0.00,WeatherDisplay:10.37,2013-06-17 00:17:00,
2013-06-16 17:22:00,94.4,47.1,29.88,West,271,2.3,2.3,20,0.00,CLR,,0.00,WeatherDisplay:10.37,2013-06-17 00:22:00,
2013-06-16 17:27:00,94.4,45.8,29.88,West,278,3.5,3.5,19,0.00,CLR,,0.00,WeatherDisplay:10.37,2013-06-17 00:27:00,
2013-06-16 17:32:00,94.3,44.3,29.88,NNE,19,4.0,4.0,18,0.00,CLR,,0.00,WeatherDisplay:10.37,2013-06-17 00:32:00,
2013-06-16 17:37:00,94.1,45.5,29.88,NNE,15,3.5,3.5,19,0.00,CLR,,0.00,WeatherDisplay:10.37,2013-06-17 00:37:00,
2013-06-16 17:42:00,94.0,45.5,29.88,WSW,243,2.3,2.3,19,0.00,CLR,,0.00,WeatherDisplay:10.37,2013-06-17 00:42:00,
2013-06-16 17:47:00,95.2,46.4,29.87,NW,312,2.0,2.0,19,0.00,CLR,,0.00,WeatherDisplay:10.37,2013-06-17 00:47:00,
2013-06-16 17:52:00,94.3,44.3,29.87,NNW,336,2.3,2.3,18,0.00,CLR,,0.00,WeatherDisplay:10.37,2013-06-17 00:52:00,
2013-06-16 17:57:00,94.0,45.5,29.87,NNW,328,4.6,4.6,19,0.00,CLR,,0.00,WeatherDisplay:10.37,2013-06-17 00:57:00,
2013-06-16 18:02:00,93.9,46.7,29.87,North,354,2.3,2.3,20,0.00,CLR,,0.00,WeatherDisplay:10.37,2013-06-17 01:02:00,
2013-06-16 18:07:00,93.7,45.2,29.87,North,1,2.3,2.3,19,0.00,CLR,,0.00,WeatherDisplay:10.37,2013-06-17 01:07:00,
2013-06-16 18:12:00,93.7,45.2,29.87,SSW,207,2.3,2.3,19,0.00,CLR,,0.00,WeatherDisplay:10.37,2013-06-17 01:12:00,
2013-06-16 18:17:00,93.6,45.1,29.87,NNW,341,3.5,3.5,19,0.00,CLR,,0.00,WeatherDisplay:10.37,2013-06-17 01:17:00,
2013-06-16 18:22:00,93.3,44.9,29.87,NNW,339,3.5,3.5,19,0.00,CLR,,0.00,WeatherDisplay:10.37,2013-06-17 01:22:00,
2013-06-16 18:27:00,93.3,44.9,29.87,NNW,339,3.5,3.5,19,0.00,CLR,,0.00,WeatherDisplay:10.37,2013-06-17 01:27:00,
2013-06-16 18:32:00,92.8,44.5,29.87,ESE,117,3.5,3.5,19,0.00,CLR,,0.00,WeatherDisplay:10.37,2013-06-17 01:32:00,
2013-06-16 18:37:00,92.8,45.8,29.87,WNW,296,3.5,3.5,20,0.00,CLR,,0.00,WeatherDisplay:10.37,2013-06-17 01:37:00,
2013-06-16 18:42:00,92.4,44.2,29.87,NNW,339,4.6,4.6,19,0.00,CLR,,0.00,WeatherDisplay:10.37,2013-06-17 01:42:00,
2013-06-16 18:47:00,92.2,47.9,29.87,NNW,339,3.5,3.5,22,0.00,CLR,,0.00,WeatherDisplay:10.37,2013-06-17 01:47:00,
2013-06-16 18:52:00,92.3,45.4,29.87,NNW,345,2.3,2.3,20,0.00,CLR,,0.00,WeatherDisplay:10.37,2013-06-17 01:52:00,
2013-06-16 18:57:00,92.0,46.5,29.87,West,266,1.2,1.2,21,0.00,CLR,,0.00,WeatherDisplay:10.37,2013-06-17 01:57:00,
2013-06-16 19:02:00,92.1,47.8,29.87,East,96,3.5,3.5,22,0.00,CLR,,0.00,WeatherDisplay:10.37,2013-06-17 02:02:00,
2013-06-16 19:07:00,91.1,47.0,29.88,NNW,347,1.2,1.2,22,0.00,CLR,,0.00,WeatherDisplay:10.37,2013-06-17 02:07:00,
2013-06-16 19:12:00,90.3,47.5,29.87,NNW,342,2.0,2.0,23,0.00,CLR,,0.00,WeatherDisplay:10.37,2013-06-17 02:12:00,
2013-06-16 19:17:00,89.5,46.8,29.87,West,270,3.5,3.5,23,0.00,CLR,,0.00,WeatherDisplay:10.37,2013-06-17 02:17:00,
2013-06-16 19:22:00,89.0,48.6,29.88,NNW,333,2.3,2.3,25,0.00,CLR,,0.00,WeatherDisplay:10.37,2013-06-17 02:22:00,
2013-06-16 19:27:00,88.3,49.1,29.88,NE,41,1.2,0.0,26,0.00,CLR,,0.00,WeatherDisplay:10.37,2013-06-17 02:27:00,
2013-06-16 19:32:00,87.7,49.6,29.88,NNW,328,1.2,1.2,27,0.00,CLR,,0.00,WeatherDisplay:10.37,2013-06-17 02:32:00,
2013-06-16 19:37:00,87.2,50.1,29.88,NNW,345,2.0,2.0,28,0.00,CLR,,0.00,WeatherDisplay:10.37,2013-06-17 02:37:00,
2013-06-16 19:42:00,86.6,50.6,29.88,North,354,1.2,1.2,29,0.00,CLR,,0.00,WeatherDisplay:10.37,2013-06-17 02:42:00,
2013-06-16 19:47:00,86.0,51.0,29.88,North,359,1.0,1.0,30,0.00,CLR,,0.00,WeatherDisplay:10.37,2013-06-17 02:47:00,
2013-06-16 19:52:00,85.5,51.4,29.88,NNE,33,1.2,1.2,31,0.00,CLR,,0.00,WeatherDisplay:10.37,2013-06-17 02:52:00,
2013-06-16 19:57:00,85.0,50.1,29.88,North,11,1.2,1.2,30,0.00,CLR,,0.00,WeatherDisplay:10.37,2013-06-17 02:57:00,
2013-06-16 20:02:00,84.5,50.5,29.88,NNE,12,1.2,0.0,31,0.00,CLR,,0.00,WeatherDisplay:10.37,2013-06-17 03:02:00,
2013-06-16 20:07:00,84.0,50.1,29.88,North,356,1.2,1.2,31,0.00,CLR,,0.00,WeatherDisplay:10.37,2013-06-17 03:07:00,
2013-06-16 20:12:00,83.6,49.8,29.88,SSW,204,1.2,0.0,31,0.00,CLR,,0.00,WeatherDisplay:10.37,2013-06-17 03:12:00,
2013-06-16 20:17:00,83.1,50.2,29.88,WNW,288,1.2,0.0,32,0.00,CLR,,0.00,WeatherDisplay:10.37,2013-06-17 03:17:00,
2013-06-16 20:22:00,82.6,49.7,29.88,NNW,347,0.0,0.0,32,0.00,CLR,,0.00,WeatherDisplay:10.37,2013-06-17 03:22:00,
2013-06-16 20:27:00,82.2,49.4,29.88,WNW,294,1.0,1.0,32,0.00,CLR,,0.00,WeatherDisplay:10.37,2013-06-17 03:27:00,
2013-06-16 20:32:00,81.7,49.8,29.88,WNW,294,0.0,0.1,33,0.00,CLR,,0.00,WeatherDisplay:10.37,2013-06-17 03:32:00,
2013-06-16 20:37:00,81.2,49.4,29.88,WNW,284,1.2,0.0,33,0.00,CLR,,0.00,WeatherDisplay:10.37,2013-06-17 03:37:00,
2013-06-16 20:42:00,80.9,49.9,29.88,WNW,283,1.2,0.0,34,0.00,CLR,,0.00,WeatherDisplay:10.37,2013-06-17 03:42:00,
2013-06-16 20:47:00,80.4,49.5,29.89,NNW,328,0.0,0.0,34,0.00,CLR,,0.00,WeatherDisplay:10.37,2013-06-17 03:47:00,
2013-06-16 20:52:00,80.1,49.2,29.89,NW,325,1.2,1.2,34,0.00,CLR,,0.00,WeatherDisplay:10.37,2013-06-17 03:52:00,
2013-06-16 20:57:00,79.7,49.6,29.89,WNW,300,0.0,0.0,35,0.00,CLR,,0.00,WeatherDisplay:10.37,2013-06-17 03:57:00,
2013-06-16 21:01:00,79.6,49.5,29.89,WNW,300,0.0,0.0,35,0.00,CLR,,0.00,WeatherDisplay:10.37,2013-06-17 04:01:00,
2013-06-16 21:02:00,79.5,49.4,29.89,WNW,300,0.0,0.0,35,0.00,CLR,,0.00,WeatherDisplay:10.37,2013-06-17 04:02:00,
2013-06-16 21:07:00,79.2,49.9,29.89,WNW,300,0.0,0.0,36,0.00,CLR,,0.00,WeatherDisplay:10.37,2013-06-17 04:07:00,
2013-06-16 21:12:00,79.0,49.8,29.89,WNW,300,0.0,0.0,36,0.00,CLR,,0.00,WeatherDisplay:10.37,2013-06-17 04:12:00,
2013-06-16 21:17:00,78.7,50.2,29.89,WNW,300,0.0,0.0,37,0.00,CLR,,0.00,WeatherDisplay:10.37,2013-06-17 04:17:00,
2013-06-16 21:22:00,78.5,50.1,29.89,WNW,300,1.2,0.0,37,0.00,CLR,,0.00,WeatherDisplay:10.37,2013-06-17 04:22:00,
2013-06-16 21:27:00,78.3,49.9,29.90,WNW,300,0.0,0.0,37,0.00,CLR,,0.00,WeatherDisplay:10.37,2013-06-17 04:27:00,
2013-06-16 21:32:00,78.0,50.3,29.90,WNW,300,0.0,0.0,38,0.00,CLR,,0.00,WeatherDisplay:10.37,2013-06-17 04:32:00,
2013-06-16 21:37:00,77.7,51.5,29.90,WNW,300,0.0,0.0,40,0.00,CLR,,0.00,WeatherDisplay:10.37,2013-06-17 04:37:00,
2013-06-16 21:42:00,77.2,50.3,29.90,WNW,300,0.0,0.0,39,0.00,CLR,,0.00,WeatherDisplay:10.37,2013-06-17 04:42:00,
2013-06-16 21:47:00,76.7,50.6,29.91,WNW,300,0.0,0.0,40,0.00,CLR,,0.00,WeatherDisplay:10.37,2013-06-17 04:47:00,
2013-06-16 21:52:00,76.2,51.4,29.91,WNW,301,0.0,0.0,42,0.00,CLR,,0.00,WeatherDisplay:10.37,2013-06-17 04:52:00,
2013-06-16 21:57:00,75.7,51.6,29.91,WNW,300,0.0,0.0,43,0.00,CLR,,0.00,WeatherDisplay:10.37,2013-06-17 04:57:00,
2013-06-16 22:02:00,75.2,51.8,29.91,WNW,300,0.0,0.0,44,0.00,CLR,,0.00,WeatherDisplay:10.37,2013-06-17 05:02:00,
2013-06-16 22:07:00,74.6,51.2,29.91,WNW,300,0.0,0.0,44,0.00,CLR,,0.00,WeatherDisplay:10.37,2013-06-17 05:07:00,
2013-06-16 22:12:00,74.1,52.0,29.91,WNW,300,0.0,0.0,46,0.00,CLR,,0.00,WeatherDisplay:10.37,2013-06-17 05:12:00,
2013-06-16 22:17:00,73.7,52.2,29.91,WNW,300,0.0,0.0,47,0.00,CLR,,0.00,WeatherDisplay:10.37,2013-06-17 05:17:00,
2013-06-16 22:22:00,73.4,51.9,29.91,WNW,300,0.0,0.0,47,0.00,CLR,,0.00,WeatherDisplay:10.37,2013-06-17 05:22:00,
2013-06-16 22:27:00,73.4,49.5,29.92,WNW,300,0.0,0.0,43,0.00,CLR,,0.00,WeatherDisplay:10.37,2013-06-17 05:27:00,
2013-06-16 22:32:00,73.9,49.4,29.92,WNW,300,0.0,0.0,42,0.00,CLR,,0.00,WeatherDisplay:10.37,2013-06-17 05:32:00,
2013-06-16 22:37:00,74.0,49.4,29.92,WNW,300,1.2,0.0,42,0.00,CLR,,0.00,WeatherDisplay:10.37,2013-06-17 05:37:00,
2013-06-16 22:42:00,74.2,49.0,29.92,NW,315,0.0,0.0,41,0.00,CLR,,0.00,WeatherDisplay:10.37,2013-06-17 05:42:00,
2013-06-16 22:47:00,74.4,49.2,29.92,NW,315,0.0,0.0,41,0.00,CLR,,0.00,WeatherDisplay:10.37,2013-06-17 05:47:00,
2013-06-16 22:52:00,74.5,48.6,29.92,NW,315,0.0,0.0,40,0.00,CLR,,0.00,WeatherDisplay:10.37,2013-06-17 05:52:00,
2013-06-16 22:57:00,74.7,48.8,29.92,NW,315,0.0,0.0,40,0.00,CLR,,0.00,WeatherDisplay:10.37,2013-06-17 05:57:00,
2013-06-16 23:02:00,74.8,48.9,29.92,NW,315,0.0,0.0,40,0.00,CLR,,0.00,WeatherDisplay:10.37,2013-06-17 06:02:00,
2013-06-16 23:07:00,74.9,48.9,29.92,NNW,328,1.2,0.0,40,0.00,CLR,,0.00,WeatherDisplay:10.37,2013-06-17 06:07:00,
2013-06-16 23:12:00,74.8,49.5,29.92,NNW,339,1.2,1.2,41,0.00,CLR,,0.00,WeatherDisplay:10.37,2013-06-17 06:12:00,
2013-06-16 23:17:00,74.6,49.3,29.92,NNW,339,0.0,0.0,41,0.00,CLR,,0.00,WeatherDisplay:10.37,2013-06-17 06:17:00,
2013-06-16 23:22:00,74.3,49.7,29.92,NNW,330,0.0,0.0,42,0.00,CLR,,0.00,WeatherDisplay:10.37,2013-06-17 06:22:00,
2013-06-16 23:27:00,74.1,48.9,29.92,NNW,330,0.0,0.0,41,0.00,CLR,,0.00,WeatherDisplay:10.37,2013-06-17 06:27:00,
2013-06-16 23:32:00,73.8,50.5,29.92,NNW,330,0.0,0.0,44,0.00,CLR,,0.00,WeatherDisplay:10.37,2013-06-17 06:32:00,
2013-06-16 23:37:00,73.4,50.2,29.93,NNW,330,0.0,0.0,44,0.00,CLR,,0.00,WeatherDisplay:10.37,2013-06-17 06:37:00,
2013-06-16 23:42:00,72.8,49.0,29.93,NNW,330,0.0,0.0,43,0.00,CLR,,0.00,WeatherDisplay:10.37,2013-06-17 06:42:00,
2013-06-16 23:47:00,72.3,48.5,29.93,NNW,330,0.0,0.0,43,0.00,CLR,,0.00,WeatherDisplay:10.37,2013-06-17 06:47:00,
2013-06-16 23:52:00,71.9,47.6,29.93,NNW,330,0.0,0.0,42,0.00,CLR,,0.00,WeatherDisplay:10.37,2013-06-17 06:52:00,
2013-06-16 23:57:00,71.8,49.3,29.93,NNW,328,0.0,0.0,45,0.00,CLR,,0.00,WeatherDisplay:10.37,2013-06-17 06:57:00,